Temp
17 17 18 19 19 19 20 19 19 19 19 19 19 18 19 19 20 20 19 19 19 18 18 18 18 18 18 18 18 17 17 16 17 14 15 16 18 19 19 18 18 18 17
17 17 16 17 17 18 19 20 19 19 18 18 18 18 18 18 18 18 18 18 17 17 17 17 17 17 17 17 17 16 15 15 16 15 14 16 17 17 18 18 18 18 17
17 16 15 15 16 17 17 18 18 18 18 18 18 17 17 17 17 17 17 17 17 17 17 17 16 16 16 16 16 16 15 14 15 15 15 15 16 14 17 17 17 17 16
14 15 14 13 15 15 16 16 17 17 17 17 18 18 18 17 17 17 16 16 16 16 16 16 16 15 15 15 15 16 15 15 14 15 14 14 13 13 14 15 16 16 15
15 15 13 13 13 14 15 15 16 16 16 16 17 17 16 16 16 15 15 15 15 15 15 15 15 16 15 14 15 15 15 15 14 14 14 14 13 12 12 13 13 14 14
14 13 13 13 12 13 13 14 14 15 15 15 15 15 15 14 14 14 14 13 13 13 13 13 13 14 14 13 14 14 15 14 14 14 13 13 13 12 11 11 11 13 12
14 12 11 11 11 12 12 13 13 13 13 13 13 13 13 13 13 12 12 12 12 12 12 12 12 12 13 13 12 13 13 14 13 13 13 13 12 12 12 11 12 12 11
12 12 12 10 11 11 11 12 12 12 12 12 12 12 12 11 11 11 11 11 11 11 11 11 11 11 12 12 12 11 12 12 12 12 12 12 11 11 11 10 10 11 10
11 11 10 10 10 11 12 12 12 11 10 10 10 10 10 10 10 9 9 9 9 9 9 9 10 10 10 10 10 10 11 11 11 10 10 10 10 9 9 8 8 8 9
9 10 10 9 10 11 11 11 11 11 10 10 9 9 9 8 8 8 8 8 8 8 8 8 8 9 9 9 9 9 9 9 8 8 8 8 7 7 8 8 8 7 7
10 10 9 9 10 10 10 10 10 10 9 9 8 8 8 8 7 7 7 7 7 7 7 7 7 7 7 8 8 8 7 6 6 6 6 6 6 6 7 6 6 5 5
10 9 8 8 8 9 9 9 9 9 8 8 7 7 6 6 6 6 5 5 5 5 5 5 5 5 5 5 5 6 5 5 5 4 5 4 4 4 4 4 4 4 4
9 9 8 8 7 8 8 8 8 8 7 7 6 6 5 5 5 4 4 4 4 4 4 4 4 4 3 3 3 3 3 3 3 3 3 2 2 1 2 3 2 3 2
10 9 8 7 7 8 8 8 7 7 7 6 5 5 4 3 2 3 2 2 2 2 2 1 2 2 2 1 1 2 2 2 1 1 1 1 1 1 1 1 2 2 2
9 9 8 8 7 7 7 7 7 6 6 5 4 4 3 3 3 2 2 2 1 1 1 1 0 -0 0 1 1 1 1 1 1 1 1 1 0 0 0 0 0 0 1
10 9 8 8 7 7 7 7 6 6 5 5 4 3 2 2 2 2 1 1 1 1 1 1 0 0 -0 -0 1 1 0 -0 -1 -0 -0 0 0 -0 -1 -1 -1 -1 -1
11 10 9 8 8 8 8 7 6 5 5 4 3 2 2 2 1 1 1 1 1 1 1 1 0 -0 -0 -1 0 1 1 0 -0 -1 -1 -1 -1 -1 -1 -1 -1 -2 -2
10 10 9 9 9 9 8 7 6 5 4 3 3 2 2 2 1 1 1 0 0 1 0 -0 -0 -0 -1 -0 -0 -0 -0 -1 -1 -1 -2 -2 -2 -2 -2 -2 -2 -2 -3
10 10 11 10 9 8 7 6 5 4 3 3 2 2 2 1 1 0 0 0 0 0 -0 -0 -1 -1 -1 -1 -1 -1 -1 -1 -2 -2 -2 -2 -2 -2 -3 -2 -3 -3 -3
10 9 9 9 8 7 6 5 4 3 3 3 2 2 1 1 0 0 -0 -0 -0 -0 -0 -1 -1 -1 -1 -2 -1 -1 -1 -2 -2 -2 -2 -3 -3 -2 -3 -3 -3 -3 -4
7 7 7 7 7 6 5 4 4 3 3 3 2 1 1 1 0 -0 -0 -1 -1 -1 -1 -1 -1 -1 -1 -1 -2 -1 -1 -1 -2 -2 -2 -3 -3 -3 -3 -3 -3 -4 -4
5 6 6 6 6 6 5 4 3 4 3 2 1 1 1 0 -0 -0 -1 -1 -1 -1 -1 -1 -1 -1 -1 -1 -1 -2 -2 -1 -2 -2 -3 -3 -4 -4 -4 -4 -3 -4 -4
6 6 6 5 5 5 5 4 4 3 2 1 1 1 0 0 -0 -1 -1 -2 -2 -1 -1 -1 -1 -0 -0 -1 -1 -1 -2 -2 -2 -2 -3 -3 -3 -3 -3 -4 -4 -4 -4
6 6 5 5 4 5 4 4 4 3 2 1 1 0 0 -0 -0 -0 -1 -1 -1 -1 -1 -1 -0 -0 -0 -0 -1 -1 -1 -2 -2 -3 -3 -4 -4 -4 -4 -4 -4 -5 -5
6 6 6 6 5 5 4 4 3 3 2 1 1 0 0 -0 -0 -0 -1 -1 -0 0 0 1 1 0 0 1 0 -0 -1 -2 -2 -3 -4 -4 -4 -4 -5 -5 -5 -5 -5
6 5 5 5 5 5 4 4 3 3 2 1 1 0 0 -0 -0 -0 -1 -1 -0 0 0 0 0 1 0 0 0 -1 -2 -3 -3 -3 -4 -4 -4 -4 -5 -5 -5 -6 -6
Height
813 815 813 813 814 816 817 819 822 824 826 829 830 832 832 835 836 838 839 840 841 842 843 843 843 844 844 844 844 845 845 844 844 846 843 841 841 841 843 843 842 841 841
812 812 813 812 813 814 814 816 818 821 823 825 827 829 830 831 833 834 835 836 837 838 838 838 838 838 838 838 838 839 840 840 841 843 843 840 837 835 836 838 838 838 837
810 809 812 811 811 813 814 815 816 818 821 823 825 827 828 829 830 831 832 833 833 833 833 833 833 833 833 833 834 834 835 836 837 838 840 838 835 835 834 835 835 835 835
809 807 809 810 811 812 814 815 816 818 820 821 823 825 826 827 828 829 829 829 829 829 829 829 829 829 829 829 829 830 831 831 832 833 834 834 834 834 834 833 833 833 832
803 805 806 808 811 812 814 815 817 818 819 821 822 823 824 825 826 826 826 827 827 827 827 827 826 826 826 826 825 826 826 826 827 828 829 829 830 831 833 832 832 831 830
797 802 805 807 811 813 814 815 816 818 819 821 821 822 823 824 825 825 825 825 825 825 825 824 824 823 823 822 822 822 822 822 822 823 824 826 826 827 829 830 828 828 827
793 796 801 805 809 812 813 814 815 816 819 820 821 822 822 822 823 824 824 825 825 824 823 822 821 821 821 821 820 819 818 819 819 819 820 821 823 824 824 824 824 824 824
788 792 795 799 804 810 812 814 815 816 818 819 821 821 822 822 822 823 823 823 823 822 821 821 820 819 817 817 817 817 817 817 817 817 818 820 820 821 822 823 824 822 821
788 790 794 798 803 808 810 813 814 815 817 818 820 821 821 822 822 822 822 823 822 822 821 819 818 817 816 816 816 815 816 816 816 816 816 817 819 819 821 822 823 823 821
788 792 797 799 802 806 809 812 814 815 816 818 819 820 820 821 821 822 822 822 822 821 819 818 817 816 815 814 813 813 813 814 815 816 815 816 818 818 820 821 822 821 821
789 793 797 801 804 806 809 811 813 815 818 819 819 819 820 820 820 820 820 820 820 819 819 817 816 814 813 812 812 812 812 813 813 814 816 816 818 818 819 820 820 819 819
789 794 798 800 803 806 809 811 813 815 817 818 818 818 818 818 819 819 819 818 818 818 818 817 816 815 814 813 812 812 812 813 814 815 816 817 818 818 819 819 819 818 818
790 794 797 799 801 804 807 810 813 815 815 816 817 816 817 818 818 818 818 818 818 818 818 817 815 815 815 815 814 813 813 814 816 816 817 818 818 818 818 819 819 819 819
789 792 794 796 799 802 805 807 810 812 814 815 816 816 817 817 818 818 818 818 818 819 818 817 816 815 815 817 817 817 816 817 818 818 819 819 819 818 819 821 821 820 819
788 789 791 793 796 799 801 805 808 810 812 813 815 816 817 816 817 818 819 818 819 819 819 819 819 818 816 817 818 820 820 818 819 819 821 821 820 820 821 822 822 821 819
784 786 787 789 792 796 797 801 806 808 810 812 812 815 817 816 816 818 818 818 818 819 820 821 821 819 819 819 819 821 820 820 820 822 822 821 821 821 823 823 823 821 819
775 779 781 783 786 790 793 797 801 806 806 808 811 814 815 816 816 816 817 819 819 821 820 822 821 820 822 822 821 823 823 823 823 823 822 823 823 823 824 823 823 822 821
770 773 776 780 783 787 791 794 798 802 804 806 809 813 814 813 814 816 817 819 819 819 821 823 823 823 824 824 825 825 825 824 825 824 824 825 825 825 824 824 823 822 821
764 766 770 774 779 783 787 792 795 798 801 803 807 810 812 811 813 814 816 818 818 820 822 824 825 826 825 827 826 825 826 825 825 826 826 826 826 827 824 823 822 821 821
761 765 768 773 778 782 785 789 792 795 798 802 805 807 809 810 811 812 814 817 819 820 822 825 826 826 827 826 825 826 826 825 825 826 826 826 826 826 825 823 822 821 821
763 766 769 773 777 781 784 788 791 794 798 800 802 804 805 807 809 811 813 816 819 821 822 824 825 825 824 825 826 826 825 824 824 825 825 826 826 825 824 822 821 820 819
766 768 771 775 777 780 783 786 789 793 795 797 799 801 803 805 808 810 812 815 818 820 821 822 822 822 823 825 826 825 823 823 823 823 824 825 825 824 822 821 821 819 818
768 770 772 774 778 779 781 784 787 790 791 794 797 799 801 804 806 808 811 814 816 818 817 818 820 821 822 822 822 822 821 821 821 822 823 823 823 822 821 820 819 818 817
768 769 771 773 775 777 779 781 784 787 789 791 794 796 798 801 804 806 809 810 812 814 814 814 817 818 818 818 819 819 818 819 820 820 820 821 821 820 819 818 817 816 815
768 769 769 771 772 774 776 778 781 784 786 788 790 792 795 798 800 803 805 806 808 810 810 811 813 813 814 814 815 815 815 816 817 818 818 819 818 818 817 816 815 814 813
767 768 769 769 769 770 771 774 778 780 783 785 787 789 791 793 796 799 801 802 805 805 806 808 809 810 811 810 811 812 812 814 815 816 816 815 815 814 814 812 811 810 810
Wind_Speed
10 11 5 10 12 12 12 15 15 16 17 16 16 17 19 19 21 21 21 21 20 18 18 19 19 20 21 22 21 21 21 19 20 13 15 19 21 22 25 27 25 25 25
6 10 8 8 11 10 11 11 12 15 16 16 15 13 12 15 20 19 19 20 21 20 21 22 22 21 21 22 23 21 17 16 19 8 6 5 8 12 18 17 17 17 17
13 7 10 10 9 10 10 11 11 10 10 11 13 13 13 12 12 11 10 10 12 15 17 18 20 21 20 22 22 22 20 13 16 15 10 3 4 3 9 11 12 13 13
7 5 11 12 12 11 10 9 9 8 7 6 7 7 8 7 7 6 6 7 8 8 9 11 13 16 17 18 20 19 18 17 14 13 17 21 9 1 2 3 7 12 13
7 9 11 12 11 11 11 10 8 6 4 4 3 3 4 4 6 6 7 7 8 8 7 8 9 10 12 14 16 18 18 17 16 16 12 11 12 11 7 2 4 7 12
12 9 13 12 11 11 11 11 9 7 4 3 3 3 3 3 3 2 1 1 1 2 3 3 4 5 7 8 11 14 17 17 16 16 15 14 6 4 6 4 7 7 8
10 11 13 16 16 13 13 12 10 9 7 5 3 3 2 2 2 1 1 1 2 3 4 4 4 5 6 6 4 6 10 11 13 13 13 13 12 10 8 6 7 5 3
10 13 16 18 20 16 14 13 11 11 9 7 5 4 3 3 2 1 2 3 4 5 6 6 6 6 6 6 5 4 6 6 7 8 7 6 6 5 5 3 3 4 4
8 11 14 17 18 17 14 13 12 11 9 7 6 5 3 2 2 1 2 3 3 4 4 4 4 5 5 4 3 3 5 5 4 4 4 4 3 4 5 5 6 2 2
8 9 11 17 18 16 14 12 10 8 7 6 5 4 3 2 1 1 2 2 3 3 4 4 4 4 4 3 2 2 3 3 2 0 1 2 3 3 2 4 4 3 4
9 10 13 14 16 15 14 13 11 9 8 6 5 3 2 1 1 1 1 2 2 3 3 3 3 3 3 2 1 1 2 3 4 3 2 2 0 0 1 2 1 1 1
7 7 10 14 15 15 14 12 11 10 8 6 5 4 2 2 1 1 1 1 1 1 2 2 3 4 4 3 4 6 7 7 8 7 6 6 4 5 4 5 5 4 3
8 8 11 13 15 15 15 13 11 10 8 7 6 5 4 2 2 1 1 1 2 2 3 3 4 4 6 7 8 9 11 13 13 13 11 9 8 9 10 8 8 7 5
10 9 8 11 15 17 16 15 13 11 10 8 7 6 4 2 1 1 0 1 3 3 3 4 6 6 7 8 10 12 15 16 15 15 14 13 12 11 10 9 7 5 3
8 10 9 11 15 16 17 15 14 13 11 10 8 6 5 4 3 2 3 3 3 4 6 8 9 9 11 10 12 14 14 16 16 15 15 15 13 11 8 6 5 4 4
11 10 8 11 15 20 20 18 16 15 13 11 9 8 6 5 5 4 6 7 7 9 10 10 10 12 12 11 12 13 13 13 13 12 10 8 6 6 8 6 7 7 5
13 11 12 15 18 21 21 21 18 15 14 11 10 9 7 6 7 7 8 9 11 11 12 11 11 13 11 10 12 12 13 13 12 11 10 9 10 7 4 3 3 6 8
10 9 13 17 19 18 19 18 18 16 15 13 11 10 8 8 8 9 10 12 12 12 11 11 12 13 12 10 10 10 11 11 11 10 8 7 7 6 7 5 3 3 5
8 13 18 19 18 18 19 20 18 17 15 14 13 11 10 11 12 12 13 13 13 12 11 11 11 11 10 7 7 7 7 7 7 6 6 5 5 4 4 5 4 2 1
10 12 15 16 17 16 18 19 18 17 17 16 14 11 12 14 14 14 15 14 13 12 13 12 11 10 10 7 7 5 5 6 5 5 3 2 3 3 3 4 4 2 2
9 13 14 16 15 17 19 19 18 19 16 13 12 13 14 15 15 15 15 15 15 16 15 12 10 9 8 8 4 3 4 5 4 2 2 3 3 3 2 3 3 3 2
11 12 13 11 12 14 16 16 17 14 13 14 14 14 14 14 15 15 16 18 18 16 14 11 9 8 7 7 6 4 0 2 1 1 2 4 3 2 2 3 2 2 3
9 9 10 10 10 13 15 16 15 14 15 14 15 15 15 16 16 16 17 18 17 16 14 10 9 8 9 9 8 5 3 3 2 1 1 4 4 4 3 1 1 4 3
9 9 9 9 11 13 14 15 13 15 16 16 16 17 18 18 17 16 18 19 17 17 14 12 12 10 10 10 10 8 7 5 4 4 4 4 4 4 5 4 4 4 3
4 9 10 11 11 12 14 15 16 17 18 17 18 19 19 19 19 18 19 21 18 16 14 13 13 12 12 11 10 10 9 7 5 5 5 6 5 6 5 4 4 4 5
5 8 11 12 12 12 16 17 18 19 20 19 20 21 21 22 21 20 18 19 18 15 14 14 13 12 13 9 8 10 9 8 7 8 8 7 7 7 7 6 6 6 6
Wind_Direction
281 282 230 195 198 203 204 212 216 219 220 222 225 233 240 247 251 254 258 260 259 262 263 266 268 267 267 271 272 271 271 275 276 278 283 283 283 281 283 274 276 280 283
254 269 269 201 196 195 190 191 199 207 212 216 222 229 242 248 252 257 259 259 259 261 261 264 268 269 270 270 267 263 264 269 274 248 275 280 282 270 266 270 279 282 298
250 210 231 216 199 184 177 176 175 180 192 210 223 231 238 246 251 252 253 251 252 253 255 258 263 267 268 269 270 266 260 254 268 266 236 247 249 342 284 287 275 288 302
231 222 211 202 188 173 165 161 160 164 174 189 207 220 231 237 244 249 249 252 256 260 264 268 269 266 265 265 265 265 259 252 250 261 255 247 249 248 293 273 268 286 306
207 219 203 195 177 167 160 156 153 152 163 191 209 224 234 247 257 260 262 260 256 259 268 273 280 282 276 268 267 265 260 251 248 244 244 246 247 245 229 255 256 302 284
202 200 187 173 166 162 157 154 149 139 146 160 179 194 200 213 221 231 231 252 256 277 308 307 304 300 297 283 266 260 259 247 241 244 242 243 229 210 207 224 248 274 283
189 175 166 169 170 167 157 150 147 134 136 139 142 146 161 176 186 215 272 288 294 295 321 323 319 313 313 308 311 278 258 253 246 246 250 250 246 249 246 255 278 267 299
189 182 179 164 164 165 160 151 144 136 137 137 134 134 141 149 161 190 260 294 301 304 310 311 309 306 303 300 294 274 268 250 237 234 230 218 222 254 278 276 303 283 244
195 179 160 162 162 162 161 159 151 142 141 139 137 139 144 165 196 237 261 272 288 291 299 304 305 304 306 303 285 231 228 221 208 201 204 206 247 272 286 304 295 271 299
162 152 159 163 165 163 159 156 153 148 148 150 149 145 144 152 177 243 279 288 298 301 301 302 307 311 312 297 273 232 205 201 187 200 279 280 290 306 323 293 290 276 245
162 158 162 168 162 159 160 161 161 161 165 172 172 174 180 196 252 290 307 310 315 319 320 330 336 344 334 315 224 172 167 148 133 120 103 99 87 181 243 275 310 298 296
143 143 155 159 164 166 168 171 172 175 178 182 179 168 164 155 146 94 32 8 346 1 5 15 26 43 57 84 112 125 120 117 114 110 117 108 112 96 81 61 43 33 355
154 161 167 176 176 176 178 182 185 188 185 185 182 166 155 137 110 87 79 87 89 86 75 74 72 79 90 99 109 116 113 108 102 98 96 96 99 89 75 65 59 54 42
177 179 179 184 187 187 187 188 190 192 191 188 189 180 171 154 94 26 160 111 110 112 96 83 85 98 104 108 111 115 112 110 106 100 94 85 80 75 71 64 57 49 46
194 193 188 186 192 192 190 194 195 193 193 190 190 188 181 166 172 164 145 145 146 122 110 107 96 95 103 113 124 124 120 116 111 106 104 95 87 75 65 60 45 35 48
206 203 194 187 192 198 195 195 197 196 193 194 192 187 185 177 170 168 162 146 138 138 133 117 117 106 100 109 117 124 124 122 117 116 109 105 101 86 69 69 63 46 47
199 197 199 198 196 203 203 200 196 198 194 193 193 192 188 186 181 168 161 152 146 145 135 133 127 115 109 109 111 112 111 110 107 104 96 87 71 63 63 70 65 66 60
193 195 192 197 204 204 202 197 192 193 194 193 194 198 196 189 182 177 168 161 154 147 143 139 128 118 110 112 115 112 109 107 105 98 94 86 67 43 41 42 54 68 64
194 196 200 198 193 193 192 189 185 189 192 195 198 201 205 193 188 181 175 169 160 157 154 148 142 134 123 130 116 112 117 114 107 102 92 71 67 42 6 19 37 33 351
182 172 169 171 177 180 183 182 184 189 198 202 202 205 207 201 192 185 179 177 173 170 157 150 146 139 134 129 108 114 122 117 110 97 97 91 44 32 1 352 11 26 8
133 145 153 163 172 174 179 185 190 201 206 202 203 207 203 200 196 186 184 185 180 172 167 169 165 158 144 136 148 110 119 108 101 94 52 19 4 323 329 327 359 356 333
124 139 144 153 167 179 185 190 202 207 200 198 202 201 198 195 193 190 190 186 182 181 181 185 184 180 178 176 171 175 212 106 95 47 10 358 340 316 276 304 315 233 282
140 152 159 160 179 191 195 199 208 199 194 194 197 196 196 197 195 191 189 189 192 193 194 198 207 209 210 210 208 212 209 240 279 323 312 309 292 290 297 289 233 262 273
163 168 172 186 201 206 210 218 212 203 196 195 196 197 196 197 198 203 206 199 203 207 206 210 224 228 228 228 226 222 222 225 243 245 245 286 286 298 304 286 266 266 264
187 190 197 212 222 219 222 220 214 206 202 202 204 202 203 198 203 210 212 209 216 221 224 233 238 236 239 242 238 233 224 224 231 243 259 279 282 293 303 296 287 279 271
222 228 237 243 245 234 234 226 218 211 210 205 207 207 206 204 212 214 219 221 228 232 243 246 247 251 250 241 233 228 217 223 218 237 258 265 279 287 292 290 289 284 270